TIMESTAMP,CO2_1_1_1,H2O_1_1_1,TAU_1_1_1,TAU_SSITC_TEST_1_1_1,H_1_1_1,H_SSITC_TEST_1_1_1,LE_1_1_1,LE_SSITC_TEST_1_1_1,FC_1_1_1,FC_SSITC_TEST_1_1_1,WD_0_0_1,WS_0_0_1,WS_MAX_0_0_1,U_SIGMA_0_0_1,V_SIGMA_0_0_1,W_SIGMA_0_0_1,USTAR_0_0_1,MO_LENGTH_0_0_1,ZL_0_0_1,FETCH_MAX_0_0_1,FETCH_70_0_0_1,FETCH_80_0_0_1,FETCH_90_0_0_1,PA_0_0_1,RH_0_0_1,TA_0_0_1,VPD_0_0_1,T_SONIC_0_0_1,T_SONIC_SIGMA_0_0_1
[yyyymmddHHMMSS],[mmolCO2 mol-1],[mmolH2O mol-1],[kg m-1 s-2],[#],[W m-2],[#],[W m-2],[#],[umolCO2 m-2 s-1],[#],[Decimal degrees],[m s-1],[m s-1],[m s-1],[m s-1],[m s-1],[m s-1],[m],[#],[m],[m],[m],[m],[kPa],[%],[deg C],[hPa],[deg C],[deg C]
20210528003000,420.02596693158529,4.7928084536116611,0.39709601759789337,0,23.226962237859343,1,39.667362188381986,1,-1.9487165412745264,1,358.01345451435179,3.1867902524323273,8.9878035166057995,1.2687215485480345,1.0049237881782345,0.73885012671515504,0.57776306978567382,-695.15502634252869,-2.7332032827218595E-002,102.85126580140530,188.04491661375269,225.04173784481659,281.72555135763611,94.555303623836494,58.866896551724139,3.2637931034482790,3.1674719868594639,2.8776923821681635,0.28626960185719175
20210528010000,421.16178677940974,4.6386022513320295,0.50955520176840841,0,6.5437717820985881,0,25.628324551269603,0,-0.30504045828333243,0,1.1573847438737062,3.3625132590547318,9.1543039316881956,1.3528279935353922,1.0419171442435176,0.75943306933861277,0.65339389543465887,-3569.7169559457320,-5.3225508449216228E-003,111.02054483818912,202.98096415090902,242.91637202702361,304.10247227250585,94.594321349392359,60.275999999999996,2.4753333333333103,2.8925257144748731,2.0791118706596876,0.20943325517662595
20210528013000,421.80433147728093,4.7290691497866826,0.39812328823203014,0,4.1240271523372272,1,26.467107970732343,0,0.41756990909447705,0,4.6492629277711899,3.0002174970481228,8.2632562907773242,1.2282911775545506,0.93914791581492707,0.64741851378625448,0.57703504089430868,-3901.8608082382643,-4.8694714993123295E-003,114.20064523676135,208.79520192050103,249.87452966017847,312.81325994419399,94.608538205295133,63.500000000000000,2.0176666666666847,2.5724184461650159,1.6477940580579684,0.14246655129181626
20210528020000,422.52650623411597,4.7697131325422761,0.40337789871447288,0,7.0695301220755393,1,26.374322462354634,0,0.53634841713365411,1,5.0561185352208327,2.9288249655385465,8.6961710031498587,1.3447207519567825,0.97726747483229881,0.64764627953346299,0.58040223992367668,-2316.3147927800196,-8.2026847383711507E-003,114.70117415754224,209.71032842320008,250.96970235733920,314.18428620311931,94.612749231553821,65.897666666666666,1.6200000000000045,2.3359979605970644,1.2541549665663752,0.16023998794008606
20210528023000,423.02290753892436,4.5092425204930970,0.43908793803170537,0,-6.5935152820010057,1,23.750113705594920,1,1.0841585205851962,0,11.300675513556030,3.1082086498966310,8.6647802436886110,1.3131381984080597,0.96014624444160723,0.66462740068668558,0.60515211603478891,2814.6467657482503,6.7504030101443327E-003,116.16731490155955,212.39090130487088,254.17766346883232,318.20027284419507,94.602638657109864,63.930999999999997,1.2583333333333258,2.4073870884325603,0.87283396442580852,0.11273887858838824
20210528030000,423.51094377823364,4.7562974704402832,0.30795796330368130,0,-0.59041445150471050,2,18.228765221193779,0,0.57553565543810836,1,16.237262865325164,2.1551934484064534,5.8540352055410390,1.0467309791841144,0.69390945246468483,0.53972631453274345,0.50650376227238247,18433.500562808858,1.0307320595597616E-003,119.00964674968728,217.58759043849639,260.39677310885770,325.98586012711030,94.619111547092018,68.897999999999996,0.96233333333333348,2.0321045840495788,0.62123850504553957,0.11328139331532595
20210528033000,424.32425000392470,4.8020146436807982,0.21449976845263652,0,-6.6651444215378302,1,20.585784565900983,0,1.2853587211145281,1,12.005755067702893,2.1623874940538386,5.6549409801387842,0.94231444433879286,0.59048279854232455,0.44967521548295969,0.42246597243547401,947.57348001108051,2.0051215447458304E-002,119.11573261131664,217.78154922790509,260.62889224201388,326.27644573756345,94.627992944444443,71.116666666666660,0.65699999999998226,1.8460162005357676,0.32100838131373166,0.10576370335061133
20210528040000,425.14430509754806,4.7500477922574209,0.20450109940280684,0,-8.3417131921832333,1,16.620235259714939,0,1.3275940820254155,0,12.219802988680044,2.0424496087211175,5.1296621917508292,0.86407777264034358,0.66761200710105340,0.41943756188315667,0.41233036407487805,703.88844077495924,2.6992913790545546E-002,123.51431598430503,225.82356248994253,270.25312815782598,338.32484705078048,94.622180534382295,71.570999999999998,0.41766666666666197,1.7857962586377920,7.6862374458414706E-002,0.12615672466981026
20210528043000,425.55308843757126,4.5909926514660908,0.32082494373427711,0,-7.1828184457709146,1,11.018545841379128,1,0.96972019321811320,0,7.3018589668724303,2.5285118127516202,6.6917068276389600,1.0615260342959012,0.81383117693699336,0.56108927528711416,0.51610006393686492,1602.8435860660866,1.1853932701338840E-002,117.11606067520812,214.12551116604536,256.25354844711791,320.79903450353595,94.614421310329874,71.104666666666674,3.6999999999977717E-002,1.7656719523434656,-0.31285126664897689,8.5954599203542689E-002
20210528050000,426.17530957736790,4.5720176053811130,0.37114137617471266,0,-4.9736070804849133,1,22.635972889382288,0,0.79998758581193574,0,14.900815533979312,2.5524487931625699,6.5353661225401281,1.1078389952664289,0.85767810912654263,0.56893710163474431,0.55479413535604727,2875.4763333363967,6.6076008971892395E-003,122.71820218838282,224.36801256352439,268.51120664854182,336.14416802508254,94.615769049913183,72.336666666666659,-0.25599999999997181,1.6547558102817947,-0.60797831471757036,0.11155227789893775
20210528053000,426.40551274952185,4.3204473678987743,0.30618912872950577,0,-14.700741216876260,0,28.369525949332026,0,1.3632554080103503,0,20.750886872599324,2.4402146689056945,7.3205856473398203,1.1255116022243674,0.72732976949894224,0.50635596769447178,0.50371220415196916,728.02927155000930,2.6097851751960586E-002,124.69129408659683,227.97545383884463,272.82839250174248,341.54877241737995,94.607789013237849,69.436666666666667,-0.47233333333332439,1.7996329869275378,-0.82223538038465449,0.10589412171825993
20210528060000,426.53081564384559,4.1836778806983217,0.31141046273150547,0,-20.347440001189725,0,22.953055586547173,0,1.3308357467733851,0,23.846455527983920,2.8286250113906073,6.9852253602175089,1.0875851459873527,0.70563188357707762,0.55046285595736544,0.50775962888191850,538.80945787777739,3.5262929635340452E-002,117.38132807057477,214.61050456747211,256.83396167958261,321.52564299624203,94.620148883897571,68.218000000000004,-0.66866666666663832,1.8447630272613253,-1.0288920644123891,0.14606217552242087
20210528063000,426.82451111653864,4.1384179224796869,0.41129144808295154,0,-33.297749559490839,0,23.228981098935762,0,1.9206299511434104,0,25.078231384863443,2.8399242043765720,6.2441849068412916,1.1882542674083028,0.74460366950354895,0.59008339857147085,0.58316562149859663,498.89346630638659,3.8084283084861018E-002,124.03884503242023,226.78256887985677,271.40081387290365,339.76161337671647,94.644913073133679,68.835333333333338,-0.93700000000001182,1.7737776094967403,-1.2956437547471751,0.11349040776128197
20210528070000,427.80803460839172,4.2638540447809454,0.22879651363647022,0,-25.067146777533555,0,17.727912532377733,0,1.4033604133734670,0,18.914264164005999,2.1411102705986798,6.5238347710522513,0.95325157479958100,0.63783300766674100,0.45363786163260017,0.43477224253130792,274.62423052673603,6.9185446468279704E-002,121.03108082142546,221.28341662496430,264.81973312688081,331.52288122214640,94.646106836154502,72.154666666666671,-1.1720000000000255,1.5577923262759321,-1.5236827307807062,0.18026468293789052
20210528073000,428.85951600975051,4.3920103036151508,0.19120465283584645,0,-26.220849461903292,0,11.311731540133744,0,1.5218839974888139,0,14.732475002834576,2.4842720182703948,6.2220975469224191,0.97200234580053124,0.64139251694373645,0.44799670875760073,0.39729371450412726,200.30045555978538,9.4857497687162812E-002,113.74292607997192,207.95834531985227,248.87302604536006,311.55949626118360,94.624109869140625,75.933666666666667,-1.4669999999999845,1.3175199280945100,-1.7952509333292710,0.19604670828365894
20210528080000,429.55097096266189,4.4124816850268695,7.1542417039785214E-002,0,-12.571899623779739,0,1.2917252112199844,0,0.68211498624405764,0,7.1360482351498717,2.2958478617755196,4.8648610216047086,0.73504771732714314,0.49557087021610019,0.35268292294564479,0.24284056553216313,95.396630944273525,0.19916845922052484,92.897567686773343,169.84638189101466,203.26273975232209,254.46083013576234,94.617238339192710,78.712000000000003,-1.8926666666666847,1.1294410722543688,-2.2136223025851791,0.10602365247448400
20210528083000,429.75938280852739,4.4172933258417020,8.4391184448222731E-002,0,-14.861395280869337,0,3.4480624308052215,0,0.76078471995940988,0,7.4489829858253245,2.1039609073541499,4.6041354241224068,0.70570619875360530,0.47351431147661172,0.31822361919376557,0.26370282330188111,103.34101746260828,0.18385729564618175,107.73598704014550,196.97574494010448,235.72965838607800,295.10555960050624,94.622673613715278,79.247666666666660,-1.9689999999999941,1.0948342729447194,-2.3014195692273915,0.12293995934217135
20210528090000,430.23785304522903,4.4914216677033423,0.12916622715165627,0,-17.529233169325604,0,6.4388399146223261,0,1.1557618653365844,0,13.120200733072465,2.2139333970581281,6.2373451538798026,0.80355411759283546,0.54580506305229393,0.37372360738077015,0.32626832421779389,165.92134437770542,0.11451209048034328,112.32447667685311,205.36496741971698,245.76941505685593,307.67414359145397,94.606596440755212,80.629333333333335,-1.9800000000000182,1.0211116391829995,-2.2794403296576320,0.18102065174403614
20210528093000,429.64245001895199,4.4706019537900792,0.30840894896241022,0,-29.765582082554033,0,18.467546601230115,0,2.5467331402651596,0,20.797844388950494,2.8327126703192587,6.7808873872866897,1.0744361364226762,0.68674290177419872,0.53721332679551836,0.50473075484524277,361.71097993701005,5.2528126194313324E-002,119.12016665969176,217.78965608250201,260.63859407644685,326.28859128301195,94.592764725694451,76.873999999999995,-1.3976666666666802,1.2725107029950011,-1.7094010484483420,0.16598312458190334
20210528100000,429.78276076549628,4.3987542615399100,0.21664872155795314,0,-22.826706402124508,0,14.698309286262814,0,1.8904688807978569,0,9.6881781083628482,2.7381673125056825,6.4760699545826972,1.0052139456043356,0.63428252687214470,0.48438693496477969,0.42315220008924337,277.93010948885507,6.8362510398542825E-002,112.38238533696973,205.47084291943005,245.89612098903251,307.83276438306621,94.591683735894094,74.768666666666661,-1.2403333333333535,1.4044933943525184,-1.5907957560220893,0.11424120121844165
20210528103000,430.80158621355457,4.4678776625326151,9.3225046961137342E-002,0,-8.4683218471778723,0,7.1158512737714856,1,1.0476822884457955,0,1.9606593079914205,2.3254719341145633,5.4442867075775725,0.78465187878505371,0.57177285063986816,0.41233025677911495,0.27739281532312166,211.08550258222800,9.0010918644678514E-002,91.187414681106432,166.71967677132909,199.52087229568880,249.77645610620277,94.615445714476721,77.663666666666671,-1.5416666666666856,1.2161125862828557,-1.8906010001130653,0.11913811407253318
20210528110000,430.81209414130575,4.5155979562582882,0.14929189079998711,0,-2.5049569734448176,0,8.4460506665770474,0,0.89436128007255622,0,5.3255574437470443,2.3824423919093589,5.2034508595202063,0.84741515225027175,0.54129944824114196,0.42403908732488643,0.35086241614820107,1444.4969198626566,1.3153368303344343E-002,107.60678764720367,196.73952724377386,235.44696613441175,294.75166244690303,94.656237041449657,79.403000000000006,-1.6923333333333517,1.1090421199892939,-2.0278411835564043,7.5281012555626151E-002
20210528113000,430.47346960566728,4.6709831741099412,0.25865952853242280,0,10.822230416293268,2,22.782160489359793,1,0.83449166067552660,0,10.234820219274468,2.3930260599071236,5.4524868824475297,0.95508572409357051,0.58603296375864544,0.48250578928858401,0.46191958847920339,-763.14126783185509,-2.4897094156604200E-002,120.92218350455326,221.08431759870405,264.58146244304811,331.22459460021582,94.688088026258683,81.083333333333329,-1.5126666666666893,1.0321270169491163,-1.8271936442056926,0.14376157593178920
20210528120000,429.78182760894725,4.8231414614262826,0.30106789910233389,1,70.910835990890007,1,26.093045998621140,1,-0.38834996447512943,2,20.700520617436041,2.1343974265675918,5.6878621479956264,0.87040952099166524,0.67524087148155842,0.53488153219626045,0.49888557950450502,-146.75352589446615,-0.12946878028445694,118.42668636617408,216.52175293175603,259.12123783198706,324.38904132099043,94.706893109592016,80.001333333333335,-0.88999999999998636,1.1421729888506247,-1.2089652718439083,0.37476303353696844
20210528123000,428.40412801232543,4.8395504295095320,0.43820282800028121,0,102.71853003364134,0,39.702846415997499,0,0.40471137237231725,2,32.457883631556371,2.3283526756505468,6.6432215162604145,1.1532225900340971,0.77887011589670729,0.58965216199962145,0.60320242830275028,-179.07788236453175,-0.10609908800084822,127.51129268671346,233.13131067228173,278.99863630715737,349.27318547399369,94.705433916232636,73.574666666666673,0.30633333333332757,1.6466017335375398,-7.3119842529365542E-002,0.44778454773340581
20210528130000,426.08829838448389,4.7654176235565853,0.61380940508483639,0,130.46155792581908,0,48.812554257234090,0,0.94374353633726760,2,42.957796995151938,3.2586151409720552,8.3772629369092666,1.4241814266745396,1.0288012529715427,0.76533177460640267,0.71586674631564073,-235.66345711736315,-8.0623445961491513E-002,118.69730413541696,217.01652852304272,259.71335784730798,325.13030531665510,94.697170694227438,65.087000000000003,1.7926666666666620,2.4212930947301397,1.3122055579291327,0.48175984375679121
20210528133000,424.39565306754236,4.6890393478012058,0.70918901188293237,0,176.42893473006791,0,62.301010715283738,0,0.49569882280212946,2,43.920480040738028,3.5563715975246613,9.2231311647348768,1.6454424722390921,1.2109699879959903,0.85553398355457422,0.77105935879624377,-217.75126501398157,-8.7255520645448517E-002,115.22198102701444,210.66252948342694,252.10924383088656,315.61085690509020,94.693185073163235,59.097999999999999,2.9200000000000159,3.0739078333913961,2.4044779076406826,0.38612421668678165
20210528140000,422.52630216665023,4.6315249984943510,0.71262391885354492,0,220.03633522618037,0,66.393909513760164,0,-1.2641789083485813,0,47.814243106999356,3.2983988049224728,9.6141378382967879,1.6659896661517335,1.2949825901798153,0.79497201451876054,0.77415504444975558,-176.71583229605866,-0.10751724818955999,122.58456376743449,224.12367890824254,268.21880166685577,335.77811168604899,94.698363376519112,54.775333333333336,3.8209999999999695,3.6222073754825108,3.3298325280084100,0.53451410453241055
20210528143000,421.39530632098149,4.5783368561751052,0.69795282660134961,0,261.18373693888469,0,72.573921202220333,0,-1.9484234514094629,0,47.267671419839786,3.2509180310365036,9.0193086682149097,1.5379958043980748,1.2798692063609478,0.88963649670422862,0.76732128859443505,-144.96745379105431,-0.13106390091796216,111.24144581452731,203.38484158840811,243.39971016797318,304.70755426998443,94.697349588541670,50.996666666666670,4.6750000000000114,4.1672147293830690,4.1804071180555979,0.55916486544110100
20210528150000,419.88879409839848,4.4430116532473400,0.75730537144162346,0,326.53769725593634,0,128.51006035775470,0,-3.7456747504735590,0,52.556002115879039,2.9625095761332889,8.1626725664703965,1.6026563449276294,1.2867918739207911,0.90646045549540333,0.80105152604230478,-131.91592095355281,-0.14403113636821624,113.42379429214425,207.37487062983993,248.17475586293045,310.68534485253588,94.686647905145335,45.473666666666666,5.8896666666666420,5.0457879323321704,5.3343402657312140,0.62423922803104848
20210528153000,419.12330837473343,4.1494698511934365,0.89319054657732144,0,294.66426480095549,0,96.121670106306865,0,-4.4848889803434204,0,26.123334943618545,3.1290252775159986,10.122976079132979,1.6862930836081522,1.2372309747009003,0.89389177201580039,0.87120446941062180,-188.01351444605277,-0.10105656530053174,122.66566675402250,224.27196103419629,268.39625749983901,336.00026533126879,94.662751486111119,40.282333333333334,6.6519999999999868,5.8247384351714873,6.0722096065945266,0.54521243314654944
20210528160000,418.51608996760251,3.7342559674538940,0.83993894329038676,0,323.02175637817140,0,125.48376676420115,0,-5.2693234933814415,0,28.300401304030942,3.0131654121111380,10.088985465042539,1.8286105891656099,1.2753225960295040,0.91472170568695488,0.84613536772946263,-157.08686643579819,-0.12095218671743860,117.64557342549907,215.09362935300712,257.41213865607608,322.24945196183597,94.637748509765629,34.231999999999999,7.4839999999999804,6.7915253220811085,6.8716213344998209,0.64595516227254857
20210528163000,418.28218867735336,3.6343002267662659,0.90738624807436130,0,342.85309049482254,0,72.042709015345267,0,-6.0707923227501608,0,31.444741429476295,3.3104080892876060,11.089493436273889,1.9139340640892346,1.6024543321194455,0.87401511783136598,0.88044998181560186,-166.73911816214712,-0.11395046471052618,125.95154381825709,230.27959228435631,275.58585773584963,345.00079167775402,94.632031500434024,31.911000000000001,8.1150000000000091,7.3402691669469036,7.4722614186605369,0.75525336971312607
20210528170000,417.88139856767043,4.2837137552606572,0.97215319010061674,0,396.95738367267614,0,156.67796688961059,0,-5.5710036716915381,0,19.133918143706239,2.4034004337084247,9.8793721314917811,1.5572777990494679,1.1363639449506775,0.86208248600246096,0.91292298537640237,-160.54909294043063,-0.11834386387377267,131.08806581686835,239.67079270748579,286.82472609627979,359.07052121237689,94.621618570746534,35.423999999999999,8.9983333333333348,7.3909597273865053,8.3954757775201188,0.71611101257014753
20210528173000,418.08068180131727,3.7210169213734900,0.89958590256815707,0,348.62393271096806,0,97.017242392269551,0,-6.5915127804188458,0,10.486513825765599,3.3994346723755715,10.155243959858691,1.6668847329832071,1.6133327809608105,0.98642916526087732,0.87882754477976976,-163.05042211363272,-0.11652837051080164,114.16292952748721,208.72624557513939,249.79200652647694,312.70995077335095,94.607604428269809,29.890000000000001,9.4270000000000209,8.2595849094033280,8.7278083174742278,0.60136448018496014
20210528180000,418.29065364990333,3.5436944298123527,0.77688393797729249,0,335.80944826163386,0,92.788433407033892,0,-5.7124094917574393,0,16.029844208201325,3.0566011568728571,10.448304896763615,1.6367504177563208,1.3325441665621096,0.89655320383915027,0.81742164781545490,-136.19849334792528,-0.13950227739644397,116.29229848327570,212.61941115371690,254.45113139567124,318.54262223771269,94.597444575045841,27.539333333333332,9.9180000000000064,8.8226906645054779,9.1950163938686842,0.60993328119424572
20210528183000,418.01801168109483,3.7303907419180455,0.73571012776891820,0,308.57688941746306,0,91.698304059519373,0,-6.9944300356122113,0,18.065212880741768,2.8250267891325893,10.153882214953851,1.5572488404497737,1.3065163102335262,0.85092298085646312,0.79657565140298570,-137.13748928443613,-0.13854708948763239,118.77480319255986,217.15822151655652,259.88292817164847,325.34258724078273,94.564846442925358,27.706000000000000,10.590666666666664,9.2072291164036777,9.9077536807590150,0.65717570473031439
20210528190000,417.85366949221373,3.7695234374875151,0.95074108107309774,0,411.24864743025262,0,135.87286257900169,0,-7.2540986492297881,0,26.901632000135635,2.7814308933237406,10.274389388645824,1.7679522345771057,1.2940579261795206,0.93240939271415046,0.90663127208781402,-151.69870323431832,-0.12524826906827302,122.43741277242015,223.85463995795354,267.89683075686651,335.37504231320054,94.548841729166668,26.833333333333332,11.226333333333343,9.7207054649672351,10.570812522040512,0.70283604140338551
20210528193000,418.46153658658386,3.5944837451854497,0.62722975432506556,0,280.17648545431911,0,83.986879929170968,0,-4.1847741661918993,0,30.992970612944845,3.6256828434021893,10.591871518475418,1.6892214450805569,1.5646134030976373,0.93899494500658853,0.73642059214313249,-119.31409473561160,-0.15924354991002654,103.09201672491200,188.48508608549179,225.56850828163655,282.38500543568063,94.537676746961807,25.580333333333332,11.228666666666641,9.8887056482860185,10.455094498528410,0.54345219620309382
20210528200000,418.52132986324597,3.5165856210598405,0.51221667561035722,0,289.46560329907459,0,79.394847396826151,0,-5.4323985964416091,0,28.719758209859094,2.9971431795022530,10.704253291864163,1.5917323695416767,1.2390935655616986,0.77845400907722417,0.66595141553550485,-85.390350178796623,-0.22250757796655474,110.51534129551005,202.05729094848590,241.81097111315074,302.71864149998129,94.517777932140035,24.454333333333334,11.574333333333357,10.270815046016569,10.737800738710575,0.59259647824322192
20210528203000,418.69741101785701,3.4961404410592358,0.82581674311177122,0,270.57943982279795,0,97.716406486455540,0,-5.5213873907062752,0,18.808836422146754,3.0446751456171928,9.9094713225358753,1.7293659361481821,1.3555215755795318,0.91490383976823153,0.84615207757299504,-187.35549456839445,-0.10141149072659845,117.62869521210914,215.06277059590028,257.37520860525575,322.20321992048810,94.498367722005213,23.790333333333333,11.899666666666690,10.586177979523578,11.045335537380595,0.56137742865064455
20210528210000,419.02919559146557,3.3696244975574428,0.60900457985869849,0,259.78100564082609,0,106.41062306055650,0,-4.1544478308054265,0,32.112506332464335,3.0828475688488002,10.526942340536992,1.8544590546853517,1.5023197231855030,0.85643176785930608,0.72689253506146834,-123.70312041629917,-0.15359353859513922,109.81884005006782,200.78386453413862,240.28700493282145,300.81081668261464,94.488749955946190,22.647666666666666,12.085666666666668,10.877473753152280,11.181141064114058,0.54270668761994290
20210528213000,418.93955232190143,3.3653344158098126,0.77359206760019816,0,234.20420256699524,0,83.109825775639720,0,-4.4058659958044109,0,16.753461391552946,3.0924433327128669,11.306840614156918,1.7498866875295247,1.5422812742332526,0.85248514106797912,0.81919367713745361,-196.38616723820036,-9.6748158320919583E-002,121.28712978152676,221.75155578665684,265.37997613901655,332.22423899248611,94.479388154079857,22.715666666666667,12.019333333333350,10.820510632570461,11.191856805589509,0.46971507578568827
20210528220000,418.69142350270783,3.5881115076370600,0.53589389796261067,0,213.42040112482397,0,70.277107612778138,0,-4.1323364772951710,0,21.483653551833271,2.6668609436722455,9.2030429744943056,1.4194183777479330,1.1922994476565165,0.75112489184799658,0.68199723526474498,-124.35458197238958,-0.15278890169256945,115.90742762514958,211.91574447679790,253.60902210237617,317.48840133083121,94.475677262047810,24.039333333333332,12.132000000000005,10.714422614340661,11.337604997189374,0.46647000500171903
20210528223000,418.44868369079592,3.9384698109789427,0.61297621449079109,0,164.26500612662994,0,64.807867465192302,0,-3.8891892573275446,0,7.2233467340772677,2.7424577427682890,8.9600874273061493,1.4071372833596718,1.0769182950101956,0.78246901157787985,0.72920874032641902,-197.50768377484351,-9.6198789013493685E-002,118.34847730351841,216.37876182172025,258.95011399371333,324.17481458176508,94.476045953342009,26.710999999999999,11.946666666666658,10.212083507247076,11.239846519470234,0.41393797916684116